カタログに戻る

FENGYUN 1C DEB

運用中PO
NORAD 37415·DEBRIS·🇨🇳 China

打ち上げ May 10, 1999 から Taiyuan Satellite Launch Center

Loading…

次のパス (今後24時間)

TLE

経年Source: Space-Track

元期: Sep 7, 2026, 23:07 UTC

1 37415U 99025EGH 26250.96370607  .00000218  00000-0  30324-3 0  9994
2 37415  98.9841 338.7432 0284086 214.9140 143.3075 13.52240451659606

AllMySatでFENGYUN 1C DEBをリアルタイム追跡

Download on the App Store